Blackwell, OK

7:56 AM CST on November 20, 2019 (GMT -0600)
Blackwell

Weather History for KBKN - October, 2019

Change the Weather History Date:

Tuesday, October 22, 2019

  Actual Average (WUND) Record (WUND)
Temperature  
Mean Temperature 52 °F -  
Max Temperature 69 °F - - (-1)
Min Temperature 35 °F - - (-1)
Degree Days  
Heating Degree Days 13    
Growing Degree Days 2 (Base 50)    
Moisture  
Dew Point 28 °F    
Average Humidity 46    
Maximum Humidity 75    
Minimum Humidity 18    
Precipitation  
Precipitation 0.00 in - - ()
Sea Level Pressure  
Sea Level Pressure 30.13 in    
Wind  
Wind Speed 10 mph ()    
Max Wind Speed 21 mph    
Max Gust Speed 29 mph    
Visibility 9.9 miles    
Events      
Averages and records for this station are not official NWS values.
T = Trace of Precipitation, MM = Missing Value Source: Averaged Metar Reports

Daily Weather History Graph

Daily Weather History Graph

Search for Another Location

Airport or City:

Astronomy

Oct. 22, 2019 Rise Set
Actual Time 7:43 AM CDT 6:44 PM CDT
Civil Twilight 7:16 AM CDT 7:10 PM CDT
Nautical Twilight 6:46 AM CDT 7:40 PM CDT
Astronomical Twilight 6:16 AM CDT 8:10 PM CDT
Moon 1:07 AM CDT (10/22) 3:42 PM CDT (10/22)
Length of Visible Light 11h 53m
Length of Day
11h 00m
Last Quarter, 37% of the Moon is Illuminated
Oct 22
Last Quarter
Oct 27
New
Nov 4
First Quarter
Nov 12
Full
Nov 19
Last Quarter

Hourly Weather History & Observations

Time (CDT) Temp. Windchill Dew Point Humidity Pressure Visibility Wind Dir Wind Speed Gust Speed Precip Events Conditions
12:15 AM 46.4 °F 41.5 °F 23.0 °F 40% 30.08 in 10.0 mi West 10.4 mph - N/A   Clear
12:35 AM 44.6 °F 39.7 °F 23.0 °F 43% 30.08 in 10.0 mi West 9.2 mph - N/A   Clear
12:55 AM 41.0 °F 34.7 °F 24.8 °F 53% 30.09 in 10.0 mi West 10.4 mph - N/A   Clear
1:15 AM 41.0 °F 34.7 °F 24.8 °F 53% 30.10 in 10.0 mi West 10.4 mph - N/A   Clear
1:35 AM 39.2 °F 32.5 °F 26.6 °F 61% 30.11 in 10.0 mi WSW 10.4 mph - N/A   Clear
2:15 AM 39.2 °F 33.0 °F 24.8 °F 56% 30.12 in 10.0 mi West 9.2 mph - N/A   Clear
2:35 AM 39.2 °F - 24.8 °F 56% 30.12 in 10.0 mi North - - N/A   Clear
2:55 AM 39.2 °F 33.0 °F 24.8 °F 56% 30.12 in 10.0 mi West 9.2 mph - N/A   Clear
3:15 AM 39.2 °F 32.5 °F 24.8 °F 56% 30.12 in 10.0 mi West 10.4 mph - N/A   Clear
3:35 AM 37.4 °F 30.3 °F 26.6 °F 65% 30.13 in 10.0 mi West 10.4 mph - N/A   Clear
3:55 AM 37.4 °F 30.8 °F 26.6 °F 65% 30.13 in 10.0 mi West 9.2 mph - N/A   Clear
4:15 AM 37.4 °F 30.8 °F 26.6 °F 65% 30.13 in 10.0 mi West 9.2 mph - N/A   Clear
4:35 AM 37.4 °F 31.4 °F 26.6 °F 65% 30.13 in 10.0 mi West 8.1 mph - N/A   Clear
4:55 AM 37.4 °F 30.8 °F 26.6 °F 65% 30.13 in 10.0 mi West 9.2 mph - N/A   Clear
5:15 AM 35.6 °F 28.0 °F 28.4 °F 75% 30.14 in 10.0 mi WSW 10.4 mph - N/A   Clear
5:35 AM 35.6 °F 28.0 °F 28.4 °F 75% 30.15 in 10.0 mi WSW 10.4 mph - N/A   Clear
5:55 AM 35.6 °F 28.0 °F 28.4 °F 75% 30.16 in 10.0 mi WSW 10.4 mph - N/A   Clear
6:15 AM 35.6 °F 27.5 °F 28.4 °F 75% 30.16 in 10.0 mi WSW 11.5 mph - N/A   Clear
6:35 AM 35.6 °F 29.2 °F 28.4 °F 75% 30.16 in 10.0 mi WSW 8.1 mph - N/A   Clear
6:55 AM 35.6 °F 28.0 °F 28.4 °F 75% 30.17 in 10.0 mi West 10.4 mph - N/A   Clear
7:15 AM 35.6 °F 28.6 °F 28.4 °F 75% 30.17 in 10.0 mi WSW 9.2 mph - N/A   Clear
7:35 AM 35.6 °F 28.0 °F 28.4 °F 75% 30.18 in 10.0 mi WSW 10.4 mph - N/A   Clear
7:55 AM 35.6 °F 28.6 °F 28.4 °F 75% 30.18 in 10.0 mi WSW 9.2 mph - N/A   Clear
8:15 AM 37.4 °F 30.3 °F 28.4 °F 70% 30.18 in 10.0 mi WSW 10.4 mph - N/A   Clear
8:35 AM 39.2 °F 32.5 °F 30.2 °F 70% 30.18 in 10.0 mi WSW 10.4 mph - N/A   Clear
8:55 AM 42.8 °F 35.8 °F 28.4 °F 57% 30.19 in 10.0 mi WSW 13.8 mph - N/A   Clear
9:15 AM 44.6 °F 38.4 °F 28.4 °F 53% 30.20 in 10.0 mi West 12.7 mph - N/A   Clear
9:35 AM 46.4 °F 40.7 °F 28.4 °F 50% 30.20 in 10.0 mi West 12.7 mph - N/A   Clear
9:55 AM 50.0 °F - 28.4 °F 43% 30.21 in 10.0 mi West 12.7 mph - N/A   Clear
10:15 AM 51.8 °F - 30.2 °F 44% 30.21 in 10.0 mi West 12.7 mph 20.7 mph N/A   Clear
10:35 AM 53.6 °F - 30.2 °F 41% 30.21 in 10.0 mi West 13.8 mph - N/A   Clear
10:55 AM 55.4 °F - 30.2 °F 38% 30.21 in 10.0 mi West 13.8 mph - N/A   Clear
11:15 AM 59.0 °F - 32.0 °F 36% 30.21 in 10.0 mi West 10.4 mph - N/A   Clear
11:35 AM 60.8 °F - 30.2 °F 31% 30.21 in 10.0 mi West 11.5 mph 17.3 mph N/A   Clear
11:55 AM 62.6 °F - 30.2 °F 30% 30.20 in 10.0 mi West 11.5 mph 19.6 mph N/A   Clear
12:15 PM 64.4 °F - 30.2 °F 28% 30.20 in 10.0 mi West 15.0 mph 24.2 mph N/A   Clear
12:35 PM 64.4 °F - 30.2 °F 28% 30.20 in 10.0 mi West 13.8 mph 20.7 mph N/A   Clear
12:55 PM 64.4 °F - 30.2 °F 28% 30.19 in 10.0 mi West 16.1 mph 25.3 mph N/A   Clear
1:15 PM 66.2 °F - 28.4 °F 24% 30.17 in 10.0 mi West 20.7 mph 26.5 mph N/A   Clear
1:35 PM 66.2 °F - 26.6 °F 23% 30.16 in 10.0 mi West 17.3 mph 24.2 mph N/A   Clear
1:55 PM 68.0 °F - 26.6 °F 21% 30.15 in 10.0 mi West 18.4 mph 28.8 mph N/A   Clear
2:15 PM 68.0 °F - 26.6 °F 21% 30.15 in 10.0 mi West 16.1 mph 25.3 mph N/A   Clear
2:35 PM 69.8 °F - 24.8 °F 18% 30.14 in 10.0 mi West 17.3 mph 25.3 mph N/A   Clear
2:55 PM 69.8 °F - 26.6 °F 20% 30.13 in 10.0 mi West 16.1 mph 25.3 mph N/A   Clear
3:15 PM 69.8 °F - 26.6 °F 20% 30.12 in 10.0 mi West 13.8 mph 23.0 mph N/A   Clear
3:35 PM 69.8 °F - 24.8 °F 18% 30.11 in 10.0 mi West 17.3 mph 24.2 mph N/A   Clear
3:55 PM 69.8 °F - 26.6 °F 20% 30.11 in 10.0 mi West 16.1 mph - N/A   Clear
4:15 PM 69.8 °F - 26.6 °F 20% 30.10 in 10.0 mi West 15.0 mph 20.7 mph N/A   Clear
4:35 PM 69.8 °F - 26.6 °F 20% 30.10 in 10.0 mi WSW 13.8 mph 24.2 mph N/A   Clear
4:55 PM 69.8 °F - 26.6 °F 20% 30.09 in 10.0 mi WSW 11.5 mph 18.4 mph N/A   Clear
5:15 PM 69.8 °F - 26.6 °F 20% 30.09 in 10.0 mi WSW 15.0 mph - N/A   Clear
5:55 PM 68.0 °F - 26.6 °F 21% 30.08 in 10.0 mi WSW 12.7 mph - N/A   Clear
6:15 PM 66.2 °F - 26.6 °F 23% 30.07 in 10.0 mi WSW 11.5 mph - N/A   Clear
6:35 PM 64.4 °F - 26.6 °F 24% 30.07 in 10.0 mi SW 6.9 mph - N/A   Clear
6:55 PM 59.0 °F - 26.6 °F 29% 30.07 in 10.0 mi SSW 6.9 mph - N/A   Clear
7:15 PM 57.2 °F - 26.6 °F 31% 30.06 in 9.0 mi SSW 5.8 mph - N/A   Clear
7:35 PM 53.6 °F - 28.4 °F 38% 30.06 in 9.0 mi South 8.1 mph - N/A   Clear
7:55 PM 51.8 °F - 28.4 °F 41% 30.06 in 10.0 mi South 8.1 mph - N/A   Clear
8:15 PM 50.0 °F - 30.2 °F 47% 30.06 in 8.0 mi South 5.8 mph - N/A   Clear
8:35 PM 50.0 °F - 30.2 °F 47% 30.06 in 9.0 mi South 4.6 mph - N/A   Clear
8:55 PM 50.0 °F - 30.2 °F 47% 30.06 in 10.0 mi South 4.6 mph - N/A   Clear
9:55 PM 46.4 °F 43.5 °F 32.0 °F 57% 30.05 in 10.0 mi South 5.8 mph - N/A   Scattered Clouds
10:15 PM 46.4 °F 42.9 °F 30.2 °F 53% 30.05 in 10.0 mi South 6.9 mph - N/A   Partly Cloudy
10:35 PM 46.4 °F 42.4 °F 32.0 °F 57% 30.05 in 10.0 mi South 8.1 mph - N/A   Partly Cloudy
10:55 PM 46.4 °F 41.9 °F 32.0 °F 57% 30.05 in 10.0 mi South 9.2 mph - N/A   Clear
11:35 PM 48.2 °F - 32.0 °F 54% 30.03 in 10.0 mi South 8.1 mph - N/A   Clear
11:55 PM 50.0 °F - 32.0 °F 50% 30.02 in 10.0 mi SSE 9.2 mph - N/A   Clear